{"data":{"norad_id":58949,"epoch":"2026-05-25T04:08:22.500096Z","epoch_age_seconds":59278,"freshness":"FRESH","line1":"1 58949U 24027U   26145.17248264  .00000394  00000+0  25447-4 0  9993","line2":"2 58949  53.1615 314.6866 0001269  99.1028 261.0116 15.30194251129032","mean_motion":15.30194251,"eccentricity":0.0001269,"inclination_deg":53.1615,"raan_deg":314.6866,"arg_perigee_deg":99.1028,"mean_anomaly_deg":261.0116,"bstar":2.5447e-5,"rev_number":12903,"period_min":94.10569926393,"perigee_km":474.36254239489,"apogee_km":476.10192750672,"semimajor_km":6853.3692349508,"source":"CELESTRAK","updated_at":"2026-05-25T13:38:18.792139Z"}}